Wind_Speed
21 22 23 22 21 21 23 24 26 26 25 24 24 24 23 24 25 26 25 24 25 25 25 23 24 25 25 25 25 25 25 25 26 25 23 22 22 21 21 20 19 20 20 20
21 23 24 24 23 22 23 24 26 25 25 24 24 24 25 25 26 26 26 26 25 25 26 24 23 23 24 25 25 24 24 24 24 24 24 22 22 21 21 20 20 20 20 20
23 23 24 25 23 23 23 24 25 26 24 24 24 24 25 26 26 26 27 27 26 25 24 24 23 22 23 24 25 24 23 23 23 23 23 23 22 22 21 21 21 20 19 19
25 24 25 24 23 24 24 24 25 25 24 25 25 25 25 26 27 26 25 26 25 24 23 24 24 23 23 24 23 22 22 22 23 22 21 22 22 23 23 22 22 20 20 20
25 25 25 24 23 24 24 25 25 26 26 25 25 25 26 26 26 25 25 25 24 24 24 24 24 23 23 23 23 22 22 22 22 21 21 22 23 23 23 22 21 21 20 20
25 25 24 23 23 24 25 26 26 27 27 27 27 27 26 26 26 26 25 24 24 24 24 24 24 23 22 22 23 23 23 22 21 21 21 20 20 21 22 21 21 20 19 20
24 25 25 24 24 24 25 24 25 26 26 27 28 27 25 25 25 25 25 24 24 24 24 24 23 22 22 23 23 23 23 22 21 21 21 20 20 20 20 21 20 20 20 20
24 25 25 25 26 26 25 25 26 25 25 26 27 26 26 26 25 23 23 23 23 23 23 23 22 21 21 22 22 22 21 21 21 21 20 20 20 20 20 20 20 20 20 20
24 25 25 24 24 25 25 25 25 24 24 25 25 24 25 24 24 24 23 23 22 22 22 22 22 21 20 20 20 20 20 19 19 20 20 19 20 20 20 21 20 20 20 20
25 25 25 25 25 25 25 25 25 25 24 24 24 24 24 24 24 23 23 22 22 22 22 22 21 20 19 19 19 19 18 18 18 18 19 19 19 19 20 20 20 20 19 19
26 26 26 26 26 25 25 24 24 24 23 23 23 23 23 23 23 24 23 23 22 21 21 21 21 20 19 18 18 18 16 16 16 16 16 18 19 18 18 19 19 19 19 20
26 26 26 26 26 26 25 25 25 24 24 24 24 24 24 23 23 23 23 23 22 21 20 20 20 19 19 18 17 16 16 15 15 15 16 17 17 18 18 19 20 20 20 20
26 26 26 26 27 26 26 25 25 25 25 25 25 24 24 23 23 22 23 23 22 21 20 19 19 18 18 17 16 17 17 16 16 16 17 17 17 18 18 19 20 21 21 21
26 26 26 25 25 24 25 25 25 25 24 24 24 23 22 22 22 21 21 21 21 21 21 20 20 20 19 19 18 17 17 17 17 17 17 18 18 18 19 19 20 20 20 20
25 26 25 25 24 24 23 23 24 24 24 24 23 23 21 21 20 20 20 20 20 21 21 21 21 20 20 19 19 18 18 17 17 17 18 18 19 19 19 19 20 20 21 21
24 24 24 23 23 23 23 23 23 23 24 22 22 21 21 21 21 20 20 20 21 22 22 21 21 21 20 19 18 18 18 18 18 18 19 19 19 20 20 20 20 21 21 22
23 23 23 23 22 22 23 23 23 22 22 21 21 21 21 21 21 20 20 21 21 21 21 21 21 20 19 19 19 18 18 18 18 19 20 20 20 20 20 21 22 22 21 21
21 22 22 22 22 22 23 23 22 21 21 21 21 21 21 21 21 21 21 21 21 21 21 21 20 20 20 20 19 19 20 20 19 20 20 20 21 21 21 21 22 22 22 22
19 20 20 21 22 22 22 23 23 22 21 21 21 21 21 21 21 21 21 21 21 21 20 20 20 21 21 21 21 21 20 20 20 21 21 21 21 22 22 22 22 22 23 22
18 18 18 19 20 20 20 21 21 21 21 22 22 22 22 22 22 21 21 21 21 20 20 20 20 20 20 21 21 21 21 21 21 21 22 22 22 22 22 21 21 22 22 22
18 17 17 17 18 18 18 19 19 20 20 21 21 21 21 21 21 20 20 20 21 21 21 20 20 19 20 20 21 21 21 21 22 22 23 23 23 23 23 23 23 23 22 22
18 17 17 17 17 17 18 18 18 19 19 20 20 21 20 20 20 20 20 19 19 20 20 19 19 19 20 20 21 21 22 22 22 23 23 23 23 23 23 23 24 23 23 23
17 17 16 17 17 18 18 18 17 18 18 19 19 19 19 19 19 19 19 19 19 19 19 20 20 20 20 20 21 21 21 21 21 22 22 22 23 23 23 23 24 24 24 24
15 15 15 16 17 17 17 16 17 17 17 17 16 16 16 16 17 17 17 17 17 17 18 19 19 20 21 21 21 21 21 21 20 21 21 21 22 23 23 23 23 23 23 24
14 15 15 16 16 16 16 16 16 16 16 15 15 14 15 15 15 15 15 15 15 16 17 17 19 20 20 20 21 21 21 21 20 20 20 21 22 22 22 22 22 22 22 23
15 15 15 15 15 16 16 16 15 14 14 14 13 14 14 14 14 14 14 14 15 16 16 17 18 18 19 19 20 20 20 20 20 20 20 21 21 21 21 21 21 22 22 23
14 14 14 14 15 15 15 14 14 14 14 13 13 13 14 14 14 14 15 15 16 16 17 17 17 17 18 18 18 18 18 19 20 20 20 20 20 20 20 20 21 22 22 22
Wind_Direction
258 259 260 260 262 265 264 266 269 269 272 276 276 278 279 281 283 287 290 289 288 287 286 284 282 281 281 281 278 276 277 275 270 269 270 267 265 263 262 262 263 264 264 266
256 257 260 262 263 264 264 267 270 273 273 276 276 277 279 281 283 286 289 291 291 290 290 286 284 281 280 282 279 278 278 273 268 267 266 266 264 261 261 262 264 265 265 266
258 260 261 261 265 265 265 267 270 273 274 274 277 279 281 282 283 286 288 289 290 289 288 288 284 282 282 283 280 277 277 274 269 267 267 264 260 260 261 261 263 264 264 265
261 261 259 262 264 265 266 269 271 274 275 277 277 279 281 282 284 285 286 287 288 288 288 286 285 284 282 281 280 277 277 275 271 267 265 262 260 260 259 258 261 262 263 265
261 261 262 262 264 265 267 268 272 274 276 278 279 280 280 282 283 286 286 287 288 286 286 285 287 285 287 284 281 281 280 276 272 268 265 263 260 258 258 257 258 259 261 265
264 265 266 264 266 267 268 269 271 273 276 278 280 279 279 281 284 286 286 286 286 286 285 287 287 286 286 286 283 281 280 277 274 272 268 264 262 258 256 255 256 257 260 263
265 268 268 268 267 269 269 271 273 274 276 277 278 279 279 281 282 284 285 284 284 285 285 288 287 285 286 287 285 281 278 275 272 271 269 265 261 259 256 255 255 257 261 262
265 267 270 273 273 273 274 274 276 278 279 278 278 277 278 281 282 283 283 282 283 284 286 288 286 286 286 287 285 280 278 275 271 268 266 263 260 258 255 254 255 258 262 265
267 270 271 273 273 274 277 276 277 279 280 280 279 278 277 279 281 280 281 280 280 282 284 284 284 283 284 286 285 282 278 274 269 266 263 261 259 258 255 253 254 257 262 265
269 271 271 271 274 276 277 278 277 280 282 281 281 280 280 277 277 277 277 278 279 279 280 282 281 279 281 284 285 283 278 271 267 265 262 260 258 257 254 252 253 257 261 264
269 270 270 272 276 278 277 277 278 280 280 281 281 279 279 280 279 278 277 276 277 278 278 279 279 277 278 282 284 280 277 270 265 262 260 260 259 256 254 253 255 257 260 263
267 268 270 272 274 278 279 278 279 280 278 279 281 280 280 280 279 278 275 275 275 275 275 276 276 276 276 277 279 275 274 269 263 262 261 261 259 256 256 257 258 260 264 264
267 269 270 272 274 276 279 279 279 278 279 280 280 280 280 279 279 278 275 272 273 273 272 273 272 273 274 274 274 273 272 270 265 262 260 259 258 258 258 259 261 262 264 265
267 268 269 270 270 273 276 277 277 278 279 281 281 280 280 278 278 278 276 272 271 272 271 271 271 272 271 270 272 273 271 268 265 263 263 261 258 260 261 262 263 265 266 267
267 267 268 267 269 271 273 274 276 276 280 280 279 280 280 278 277 276 275 273 272 272 271 271 271 271 270 270 271 272 270 267 265 264 264 264 263 263 265 267 267 266 266 269
266 266 267 266 267 269 271 273 274 276 278 279 281 280 279 278 278 277 275 274 273 270 270 270 270 270 269 269 268 268 269 267 265 266 266 266 266 265 265 266 267 268 268 270
266 267 268 268 268 268 269 270 273 273 273 276 278 279 278 278 277 276 277 276 274 273 271 269 271 270 268 266 267 268 268 268 267 266 265 266 267 268 267 268 268 268 269 269
268 268 267 267 265 266 267 268 271 272 271 273 275 277 277 278 277 275 276 274 271 271 272 271 270 269 266 265 266 268 268 268 268 268 266 266 268 269 270 270 270 270 270 271
273 270 268 267 265 267 269 269 270 272 272 273 275 276 277 277 278 277 275 273 272 272 272 270 268 268 267 268 268 267 267 267 268 268 267 267 268 269 269 270 270 270 271 271
275 274 270 270 272 272 270 270 271 272 272 273 275 276 276 277 278 278 275 273 273 273 271 270 271 270 270 271 270 270 269 269 269 269 268 268 268 267 269 271 271 272 272 272
276 275 273 273 274 275 274 274 272 272 272 272 274 275 276 276 275 275 273 272 271 272 272 270 270 270 271 271 271 272 271 271 271 272 271 270 269 269 271 273 272 270 271 272
278 275 272 271 273 276 278 279 278 276 274 272 272 273 274 274 273 273 273 272 272 272 272 272 273 273 272 273 273 274 273 272 272 272 272 271 268 267 270 272 271 269 269 270
280 277 273 272 276 280 280 279 279 276 274 273 273 273 272 273 274 274 274 274 273 273 273 273 274 273 272 272 274 274 274 274 272 272 271 270 268 268 270 271 270 270 270 272
283 281 277 277 281 283 280 278 278 276 274 273 274 273 272 273 275 275 275 275 276 278 278 276 274 274 273 272 272 273 274 273 273 273 272 272 270 269 270 271 271 271 272 273
281 280 279 279 281 279 276 276 277 276 274 273 272 272 273 275 277 278 279 281 283 283 282 280 278 277 277 277 275 273 272 272 273 274 274 273 270 269 271 273 274 274 274 275
282 283 281 281 281 281 278 277 277 276 276 273 269 270 272 273 277 280 281 283 286 286 287 286 284 283 282 281 279 277 274 272 272 273 273 273 271 270 271 274 275 275 276 277
280 282 282 283 283 282 282 280 278 275 273 272 270 270 272 275 278 279 281 285 286 288 290 290 288 286 286 285 283 280 277 275 273 273 275 275 271 269 270 273 275 276 276 277
Height
5807 5808 5808 5808 5808 5808 5808 5807 5807 5807 5806 5806 5805 5804 5803 5802 5801 5801 5799 5798 5796 5795 5794 5793 5792 5790 5790 5789 5788 5787 5787 5786 5786 5786 5787 5787 5788 5788 5789 5790 5791 5791 5792 5792
5801 5802 5802 5802 5802 5802 5802 5801 5801 5800 5800 5800 5798 5797 5797 5796 5795 5794 5793 5791 5790 5789 5787 5786 5784 5783 5782 5781 5779 5779 5779 5779 5779 5779 5780 5781 5781 5782 5783 5784 5785 5785 5786 5786
5795 5795 5795 5795 5796 5796 5795 5795 5794 5794 5795 5793 5792 5791 5791 5790 5789 5787 5786 5785 5783 5782 5780 5779 5778 5776 5775 5774 5773 5772 5772 5772 5772 5772 5773 5774 5774 5775 5776 5777 5778 5779 5779 5780
5789 5789 5789 5792 5790 5789 5789 5788 5788 5787 5787 5786 5785 5785 5784 5783 5782 5781 5779 5778 5777 5775 5774 5773 5771 5770 5769 5768 5767 5766 5765 5764 5764 5765 5766 5767 5767 5768 5769 5770 5771 5772 5773 5773
5781 5781 5781 5783 5783 5782 5782 5781 5781 5780 5780 5779 5778 5778 5777 5776 5774 5774 5773 5771 5770 5769 5767 5766 5764 5763 5762 5761 5760 5759 5758 5758 5757 5758 5758 5759 5760 5761 5762 5763 5764 5765 5766 5766
5774 5774 5775 5777 5777 5775 5776 5774 5775 5774 5773 5772 5771 5771 5771 5769 5767 5767 5766 5764 5763 5762 5761 5759 5758 5757 5756 5754 5753 5752 5751 5751 5751 5751 5751 5751 5752 5754 5755 5756 5758 5758 5759 5760
5768 5767 5768 5769 5769 5768 5769 5769 5767 5766 5766 5765 5764 5764 5763 5761 5760 5759 5758 5757 5756 5755 5754 5753 5751 5750 5749 5747 5746 5745 5744 5744 5744 5744 5744 5745 5746 5747 5748 5750 5751 5752 5753 5754
5761 5761 5763 5761 5761 5762 5761 5760 5759 5759 5758 5757 5756 5755 5754 5753 5753 5752 5751 5750 5749 5748 5747 5746 5744 5743 5741 5740 5738 5737 5737 5736 5737 5737 5738 5738 5739 5740 5741 5743 5745 5746 5747 5747
5755 5756 5755 5754 5753 5753 5753 5752 5752 5751 5751 5750 5749 5747 5746 5746 5745 5745 5744 5743 5742 5741 5741 5739 5738 5736 5735 5733 5731 5730 5729 5729 5730 5730 5731 5732 5732 5733 5735 5736 5738 5739 5740 5741
5747 5747 5747 5746 5746 5746 5745 5745 5745 5744 5743 5742 5741 5740 5739 5738 5737 5737 5736 5736 5735 5734 5734 5733 5731 5729 5728 5726 5724 5723 5722 5722 5723 5724 5725 5725 5726 5727 5729 5730 5732 5733 5734 5734
5739 5739 5739 5739 5738 5738 5738 5737 5737 5736 5735 5734 5733 5732 5731 5731 5730 5730 5729 5728 5728 5727 5726 5725 5724 5723 5721 5720 5718 5716 5716 5716 5717 5718 5719 5720 5721 5722 5723 5725 5726 5727 5727 5728
5732 5732 5732 5732 5731 5730 5730 5730 5729 5728 5728 5727 5726 5725 5724 5723 5723 5722 5721 5721 5720 5720 5719 5719 5718 5716 5715 5714 5712 5711 5711 5711 5711 5712 5713 5714 5715 5716 5717 5718 5719 5720 5721 5721
5723 5723 5723 5723 5723 5722 5722 5721 5721 5721 5720 5719 5718 5717 5717 5716 5715 5715 5714 5714 5713 5713 5712 5712 5711 5710 5709 5708 5707 5707 5706 5706 5706 5707 5708 5708 5709 5710 5711 5712 5713 5714 5714 5714
5715 5715 5715 5715 5715 5715 5714 5714 5713 5713 5712 5712 5711 5710 5709 5708 5708 5707 5707 5707 5706 5706 5706 5705 5705 5704 5703 5703 5702 5702 5701 5701 5701 5702 5702 5703 5703 5704 5705 5706 5707 5707 5708 5708
5707 5707 5707 5707 5707 5707 5707 5707 5706 5706 5705 5704 5703 5703 5702 5702 5701 5701 5700 5700 5699 5699 5699 5699 5698 5698 5697 5697 5697 5697 5697 5696 5697 5697 5697 5698 5698 5699 5699 5700 5701 5701 5701 5701
5699 5699 5699 5699 5700 5700 5699 5699 5699 5698 5698 5697 5696 5696 5695 5695 5694 5694 5693 5693 5693 5692 5692 5692 5692 5691 5691 5691 5691 5691 5691 5691 5691 5691 5692 5692 5692 5692 5693 5693 5694 5694 5694 5694
5691 5692 5692 5691 5692 5692 5692 5692 5691 5691 5690 5690 5689 5689 5689 5688 5687 5687 5686 5686 5686 5686 5685 5685 5685 5685 5685 5685 5685 5685 5685 5685 5685 5685 5685 5686 5686 5686 5686 5686 5687 5687 5687 5687
5684 5685 5684 5685 5685 5685 5685 5685 5684 5684 5683 5683 5683 5682 5682 5682 5681 5680 5679 5679 5679 5679 5679 5679 5678 5678 5679 5679 5679 5679 5679 5679 5679 5679 5679 5679 5680 5679 5679 5679 5679 5679 5679 5679
5677 5677 5677 5677 5677 5677 5678 5677 5677 5677 5677 5676 5676 5676 5675 5675 5674 5674 5673 5672 5672 5672 5672 5672 5672 5672 5672 5672 5672 5672 5672 5672 5672 5672 5672 5672 5672 5672 5672 5672 5672 5672 5672 5671
5671 5671 5670 5670 5670 5670 5670 5670 5670 5670 5670 5669 5669 5669 5669 5668 5668 5667 5666 5665 5665 5665 5665 5665 5665 5665 5665 5665 5665 5665 5665 5665 5665 5665 5665 5665 5665 5665 5665 5665 5664 5664 5664 5664
5666 5665 5665 5665 5664 5664 5663 5663 5663 5663 5663 5663 5662 5662 5662 5661 5660 5660 5659 5659 5659 5658 5658 5658 5658 5658 5658 5658 5658 5658 5658 5658 5658 5657 5657 5657 5657 5657 5657 5657 5657 5657 5657 5656
5659 5659 5659 5658 5658 5658 5657 5657 5656 5656 5656 5656 5655 5655 5655 5654 5653 5653 5652 5652 5652 5652 5652 5652 5651 5651 5651 5650 5650 5650 5650 5650 5650 5649 5649 5649 5649 5649 5649 5649 5649 5649 5649 5648
5653 5652 5652 5652 5652 5651 5651 5650 5650 5649 5649 5649 5649 5648 5648 5647 5647 5646 5646 5646 5645 5645 5645 5645 5645 5644 5644 5643 5643 5642 5642 5642 5641 5641 5641 5641 5641 5641 5641 5641 5641 5641 5640 5640
5647 5647 5646 5646 5646 5645 5645 5644 5644 5643 5643 5642 5642 5641 5641 5641 5641 5640 5640 5640 5639 5638 5638 5637 5637 5637 5636 5636 5635 5635 5634 5634 5634 5634 5634 5634 5634 5633 5633 5633 5633 5633 5633 5632
5642 5641 5641 5641 5640 5639 5639 5638 5637 5637 5636 5636 5636 5636 5636 5636 5635 5635 5634 5633 5633 5632 5631 5631 5630 5629 5628 5628 5627 5627 5627 5627 5627 5627 5626 5626 5626 5626 5626 5626 5626 5625 5625 5624
5637 5636 5636 5635 5635 5634 5633 5632 5631 5631 5631 5631 5631 5631 5630 5630 5629 5629 5628 5628 5627 5626 5625 5624 5623 5622 5622 5621 5620 5620 5619 5619 5619 5619 5619 5619 5619 5618 5618 5618 5617 5617 5617 5616
5632 5631 5630 5630 5629 5628 5628 5627 5626 5626 5626 5626 5625 5625 5625 5624 5624 5623 5623 5622 5621 5620 5619 5618 5617 5616 5615 5614 5613 5613 5612 5612 5612 5612 5612 5611 5611 5611 5610 5610 5610 5609 5609 5608